Location: Peebles
(55.6412°N, 3.1714°W)
Time: 16:34:49
(UTC+01:00)

ISS - Visible Passes

Search period start: 19 April 2024 00:00
Search period end: 29 April 2024 00:00
Orbit: 412 x 418 km, 51.6° (Epoch: 19 April)

Date Brightness Start Highest point End Pass type
(mag) Time Alt. Az. Time Alt. Az. Time Alt. Az.
26 Apr -1.6 04:28:47 10° S 04:30:54 16° SSE 04:33:00 10° ESE visible
27 Apr -1.3 03:41:05 11° SSE 03:42:00 12° SE 03:43:12 10° ESE visible
28 Apr -2.3 04:26:27 12° SSW 04:28:55 25° SSE 04:31:42 10° E visible
